Regional Weather Roundup
Issued by NWS Goodland, KS

Home | Current Version | Previous Version | Graphics & Text | Print | Product List | Glossary On
Versions: 1 2 3 4 5 6 7 8 9 10 11 12 13 14 15 16 17 18 19 20 21 22 23 24 25 26 27 28 29 30 31 32 33 34 35 36 37 38 39 40 41 42 43 44 45 46 47 48 49 50
873
ASUS43 KGLD 300008
RWRGLD

GOODLAND FORECAST AREA HOURLY WEATHER ROUNDUP
NATIONAL WEATHER SERVICE GOODLAND KS
600 PM MDT WED MAR 29 2017

...OFFICIAL OBSERVATIONS...

CITY           SKY/WX    TMP DP  RH WIND       PRES   REMARKS
GOODLAND KS    CLOUDY    44  38  79 N23       29.91S
HILL CITY KS   LGT RAIN  39  37  92 N23G30    29.87S FOG
IMPERIAL NEB   CLOUDY    47  38  71 N15       29.94F
MCCOOK NEB     CLOUDY    45  41  86 N20       29.90S
AKRON CO       MOSUNNY   49  35  58 NE17      29.96S
BURLINGTON CO  CLOUDY    44  39  82 N16       29.94S
LIMON CO       MOSUNNY   48  35  60 N16       29.97S
$$

...UNOFFICIAL OBSERVATIONS...

CITY           SKY/WX    TMP DP  RH WIND       PRES   REMARKS
NORTON KS      LGT RAIN  39  34  81 N17G26    29.87R
SHARON SPRINGS   N/A     43  40  89 N14G21      N/A
TRENTON NEB      N/A     45  32  60 N13         N/A
KIT CARSON CO    N/A     45  38  78 MISG        N/A
YUMA CO        CLOUDY    45  37  76 N15       29.96S
$$




USA.gov is the U.S. government's official web portal to all federal, state and local government web resources and services.